Hettinger, ND

4:44 AM MDT on May 30, 2017 (GMT -0600)
Hettinger Municipal

Weather History for KHEI - April, 2014

Change the Weather History Date:

Tuesday, April 15, 2014

  Actual Average Record
Temperature  
Mean Temperature 39 °F -  
Max Temperature 58 °F 56 °F 81 °F (2006)
Min Temperature 19 °F 28 °F 18 °F (2001)
Degree Days  
Heating Degree Days 26 23  
Month to date heating degree days 461 391  
Since 1 July heating degree days 8356 7800  
Cooling Degree Days 0 0  
Month to date cooling degree days 0 0  
Year to date cooling degree days 0 0  
Moisture  
Dew Point 18 °F    
Average Humidity 48    
Maximum Humidity 68    
Minimum Humidity 24    
Precipitation  
Precipitation 0.00 in 0.05 in 0.12 in (2016)
Month to date precipitation 0.01 0.55  
Year to date precipitation 0.54 2.04  
Sea Level Pressure  
Sea Level Pressure 29.80 in    
Wind  
Wind Speed 13 mph (SE)    
Max Wind Speed 21 mph    
Max Gust Speed 25 mph    
Visibility 10 miles    
Events      
T = Trace of Precipitation, MM = Missing Value Source: NWS Daily Summary

Daily Weather History Graph

Daily Weather History Graph

Search for Another Location

Airport or City:

Trip Planner

Search our weather history database for the weather conditions in past years. The results will help you decide how hot, cold, wet, or windy it might be!

Date:

Astronomy

Apr. 15, 2014 Rise Set
Actual Time 6:04 AM MDT 7:37 PM MDT
Civil Twilight 5:33 AM MDT 8:09 PM MDT
Nautical Twilight 4:55 AM MDT 8:47 PM MDT
Astronomical Twilight 4:14 AM MDT 9:28 PM MDT
Moon 8:23 PM MDT (4/15) 6:12 AM MDT (4/15)
Length of Visible Light 14h 36m
Length of Day
13h 33m
Full, 100% of the Moon is Illuminated
Apr 15
Full
Apr 22
Last Quarter
Apr 29
New
May 6
First Quarter
May 14
Full

Hourly Weather History & Observations

Time (MDT) Temp. Windchill Dew Point Humidity Pressure Visibility Wind Dir Wind Speed Gust Speed Precip Events Conditions
12:53 AM 19.9 °F 7.9 °F 10.0 °F 65% 30.14 in 10.0 mi SE 11.5 mph - N/A   Overcast
1:53 AM 21.0 °F 8.6 °F 9.0 °F 60% 30.10 in 10.0 mi SE 12.7 mph - N/A   Overcast
2:53 AM 19.9 °F 8.6 °F 10.0 °F 65% 30.06 in 10.0 mi SE 10.4 mph - N/A   Clear
3:53 AM 19.0 °F 7.5 °F 10.0 °F 68% 30.04 in 10.0 mi SE 10.4 mph - N/A   Clear
4:53 AM 21.0 °F 7.1 °F 10.0 °F 63% 29.99 in 10.0 mi SE 16.1 mph - N/A   Overcast
5:53 AM 21.0 °F 8.1 °F 10.9 °F 65% 29.95 in 10.0 mi SE 13.8 mph - N/A   Overcast
6:53 AM 21.9 °F 8.2 °F 12.9 °F 68% 29.92 in 10.0 mi SE 16.1 mph - N/A   Overcast
7:53 AM 25.0 °F 12.6 °F 14.0 °F 63% 29.92 in 10.0 mi SE 15.0 mph - N/A   Overcast
8:53 AM 28.9 °F 17.3 °F 15.1 °F 56% 29.87 in 10.0 mi SE 16.1 mph 21.9 mph N/A   Overcast
9:53 AM 34.0 °F 24.6 °F 16.0 °F 48% 29.85 in 10.0 mi SE 13.8 mph 24.2 mph N/A   Partly Cloudy
10:53 AM 37.9 °F 28.5 °F 18.0 °F 45% 29.81 in 10.0 mi SSE 17.3 mph - N/A   Clear
11:53 AM 45.0 °F 38.5 °F 19.9 °F 37% 29.77 in 10.0 mi SE 13.8 mph - N/A   Mostly Cloudy
12:53 PM 48.0 °F - 19.9 °F 33% 29.73 in 10.0 mi SSE 16.1 mph - N/A   Clear
1:53 PM 52.0 °F - 21.0 °F 30% 29.68 in 10.0 mi SSE 12.7 mph 19.6 mph N/A   Clear
2:53 PM 55.9 °F - 21.0 °F 26% 29.63 in 10.0 mi SE 12.7 mph - N/A   Clear
3:53 PM 57.0 °F - 21.0 °F 25% 29.61 in 10.0 mi SE 11.5 mph - N/A   Clear
4:53 PM 55.9 °F - 21.9 °F 27% 29.59 in 10.0 mi ESE 13.8 mph - N/A   Partly Cloudy
5:53 PM 55.9 °F - 23.0 °F 28% 29.60 in 10.0 mi ESE 10.4 mph - N/A   Overcast
6:53 PM 52.0 °F - 24.1 °F 34% 29.62 in 10.0 mi East 13.8 mph - N/A   Overcast
7:53 PM 46.0 °F 40.2 °F 25.0 °F 44% 29.65 in 10.0 mi NE 12.7 mph - N/A   Overcast
8:53 PM 44.1 °F 37.4 °F 24.1 °F 45% 29.67 in 10.0 mi East 13.8 mph - N/A   Scattered Clouds
9:53 PM 37.9 °F 29.2 °F 23.0 °F 55% 29.70 in 10.0 mi ENE 15.0 mph - N/A   Partly Cloudy
10:53 PM 37.0 °F 31.0 °F 21.9 °F 54% 29.69 in 10.0 mi East 8.1 mph - N/A   Mostly Cloudy
11:53 PM 35.1 °F 29.3 °F 21.9 °F 59% 29.69 in 10.0 mi East 6.9 mph - N/A   Scattered Clouds